STARLINK-32727, 62828

Orbit data source: Space-Track

STARLINK-32727, 62828 is a payload satellite owned by SpaceX/Seattle (US) in LEO that was launched on Fri, 24 Jan 2025 UTC via an FALCON 9 launch vehicle from the Air Force Western Test Range (AFWTR). Payload-class satellites include a variety of spacecraft equipped with specific instruments for various scientific and technological missions. These include communications satellites like Starlink; space stations such as the ISS; scientific satellites like the Hubble; Earth observation satellites from companies like Planet Labs, Umbra, and HawkEye 360; GPS; miniature CubeSats for education and research; and military/defense satellites.

Loading next visibility...
Identifier
62828, 2025-018Y
Orbit
LEO
Country
Flag of USUS
Related business
Manufacturer
SpaceX/Seattle
Mission
Operational Commercial Communications
Bus & Motor
STARLINK V2M, Unknown motor
Mass
730 kg wet, ~700 kg dry
Launch date (UTC)
2025-01-24 (9 months ago)
Launch vehicle
FALCON 9
Launch site
Air Force Western Test Range (AFWTR)
Object type
Payload
Rocket body
Debris
Shape & HBR
Box + 2 Pan, 17.7 m
Radar Cross Section
33.884 m², Large (>1 m²)

Expand to show TLE details & history
Last TLE update: 11 hours ago

TLE from 11 hours ago
0 STARLINK-32727
1 62828U 25018Y   25300.94012109  .00048690  00000-0  16436-2 0  9997
2 62828  53.1582 203.3760 0001043 311.6222  48.4689 15.30233550 43832
Epoch: 2025-10-27T22:33Z
TLE epoch observation values (Epoch: 2025-10-27T22:33:46.462Z)
Latitude
-0.00003°
Longitude
-171.60237°
Altitude
475.541 km
Speed
7.63 km/s
True Right ascension
13h 33m 30s
True Declination
0° 00' 00"
Sunlit
Object was in daylight at epoch
Visualization orbit readout
Latitude
Unknown
Longitude
Unknown
Altitude
Unknown
Speed
Unknown
Apparent Right ascension
Unknown
Apparent Declination
Unknown
Sunlit
N/A
Visualization observer readout
Local Sidereal Time
05:18:30
Azimuth
Unknown
Elevation
Unknown
Doppler factor
Unknown
Orbital elements
Apogee altitude
476.086 km
Perigee altitude
474.657 km
Semi-major axis
6,853.509 km
Eccentricity
0.0001
Inclination
53.1582°
RAAN
203.376°
Arg. of periapsis
311.6222°
True anomaly
48.47785°
Mean anomaly
48.4689°
Eccentric anomaly
48.47337°
Mean motion
3.82537 °/min
Orbital period
94.11 mins
BSTAR
0.0016436
Loading maneuver chart data...
Computing Atmospheric mass density...
Loading historical data...
Loading historical data...
Loading historical data...
Loading historical data...
Loading historical data...
Loading historical data...
Loading historical data...

Documentation

Showing up to 5 results
|